contact:dominique.lefevre@mio.osupytheas.fr, maurice.libes@osupytheas.fr, didier.mallarino@osupytheas.fr
Project:EMSO http://www.emso-fr.org/EMSO-France
Depth: 2436.0 m
Title:EMSO Ligure Ouest : Data MII capteur AQUADOPP
Date,Latitude,Longitude,X_East,Y_North,Z_Up,Amplitude_X,Amplitude_Y,Amplitude_Z,Batterie,SoundSpeed,Heading,Pitch,Roll,Pressure,TIS,Speed,Direction
, degrees North, degrees East, m.s-1, m.s-1,m.s-1, 1, 1, 1, Volt, m.s-1, degree, degree, degree, dbar, degree_C, m.s-1, degree
2019-06-28T00:09:04,42.805,6.029,0.001,0.033,0.014,102.0,108.0,99.0,13.4,1505.3,325.4,-0.7,1.8,2470.139,13.31,0.033,1.7
2019-06-28T00:12:05,42.805,6.029,-0.027,0.009,0.008,102.0,108.0,101.0,13.4,1505.3,327.9,-0.7,1.8,2470.128,13.32,0.028,288.4
2019-06-28T00:15:06,42.805,6.029,-0.027,0.011,-0.022,102.0,110.0,100.0,13.4,1505.3,327.6,-0.7,1.8,2470.111,13.33,0.029,292.2
2019-06-28T00:18:07,42.805,6.029,-0.013,-0.004,-0.017,104.0,108.0,100.0,13.3,1505.3,324.8,-0.7,1.9,2470.099,13.33,0.013,252.9
2019-06-28T00:21:08,42.805,6.029,-0.013,0.007,0.004,103.0,110.0,99.0,13.4,1505.4,326.9,-0.7,1.8,2470.113,13.34,0.014,298.3
2019-06-28T00:24:09,42.805,6.029,-0.015,0.009,-0.016,103.0,109.0,99.0,13.4,1505.4,325.1,-0.7,1.9,2470.13,13.34,0.017,301.0
2019-06-28T00:27:10,42.805,6.029,-0.02,0.011,0.0,104.0,109.0,100.0,13.4,1505.4,323.3,-0.7,1.8,2470.102,13.34,0.022,298.8
2019-06-28T00:30:11,42.805,6.029,-0.036,-0.003,-0.031,104.0,110.0,99.0,13.3,1505.4,323.4,-0.7,1.8,2470.114,13.34,0.036,265.2
2019-06-28T00:33:12,42.805,6.029,-0.033,0.019,-0.008,104.0,108.0,102.0,13.4,1505.4,324.4,-0.7,1.8,2470.115,13.34,0.038,299.9
2019-06-28T00:36:13,42.805,6.029,-0.008,0.0,-0.02,103.0,108.0,100.0,13.3,1505.4,324.3,-0.7,1.8,2470.071,13.34,0.008,270.0
2019-06-28T00:39:14,42.805,6.029,-0.025,0.021,-0.008,104.0,110.0,100.0,13.4,1505.4,326.3,-0.7,1.8,2470.119,13.34,0.032,310.0
2019-06-28T00:42:15,42.805,6.029,-0.013,0.004,-0.023,104.0,109.0,100.0,13.4,1505.4,325.0,-0.7,1.8,2470.084,13.34,0.013,287.1
2019-06-28T00:45:16,42.805,6.029,-0.032,0.014,0.01,102.0,110.0,100.0,13.4,1505.4,327.1,-0.7,1.8,2470.053,13.34,0.034,293.6
2019-06-28T00:48:17,42.805,6.029,0.007,-0.004,-0.014,105.0,109.0,99.0,13.4,1505.4,323.4,-0.7,1.9,2470.072,13.34,0.008,119.7
2019-06-28T00:51:18,42.805,6.029,-0.023,0.008,-0.042,103.0,108.0,100.0,13.4,1505.4,324.5,-0.8,1.8,2470.069,13.34,0.024,289.2
2019-06-28T00:54:19,42.805,6.029,-0.033,0.005,-0.035,101.0,110.0,99.0,13.4,1505.4,325.0,-0.7,1.8,2470.122,13.34,0.033,278.6
2019-06-28T00:57:20,42.805,6.029,-0.048,0.021,-0.022,102.0,108.0,98.0,13.3,1505.4,326.4,-0.8,1.9,2470.078,13.34,0.052,293.6
2019-06-28T01:00:21,42.805,6.029,-0.036,0.01,0.001,100.0,109.0,99.0,13.4,1505.4,323.8,-0.8,1.8,2470.131,13.34,0.037,285.5
2019-06-28T01:03:22,42.805,6.029,-0.036,0.021,-0.053,103.0,108.0,99.0,13.4,1505.4,324.8,-0.7,1.8,2470.094,13.34,0.041,300.3
2019-06-28T01:06:23,42.805,6.029,-0.004,0.016,-0.018,100.0,108.0,100.0,13.3,1505.4,328.2,-0.7,1.8,2470.083,13.34,0.016,346.0
2019-06-28T01:09:24,42.805,6.029,-0.047,0.022,-0.003,101.0,108.0,98.0,13.4,1505.4,324.9,-0.7,1.8,2470.056,13.34,0.051,295.1
2019-06-28T01:12:25,42.805,6.029,-0.013,0.007,-0.029,102.0,107.0,99.0,13.3,1505.4,327.0,-0.7,1.8,2470.126,13.34,0.014,298.3
2019-06-28T01:15:26,42.805,6.029,-0.025,0.023,-0.015,101.0,110.0,98.0,13.4,1505.4,324.8,-0.7,1.8,2470.097,13.34,0.033,312.6
2019-06-28T01:18:27,42.805,6.029,-0.026,0.014,-0.01,102.0,108.0,99.0,13.4,1505.4,325.4,-0.7,1.8,2470.125,13.34,0.029,298.3
2019-06-28T01:21:28,42.805,6.029,-0.039,0.024,-0.026,100.0,108.0,97.0,13.4,1505.4,323.7,-0.7,1.8,2470.127,13.34,0.045,301.6
2019-06-28T01:24:29,42.805,6.029,-0.025,0.017,-0.005,101.0,107.0,99.0,13.4,1505.4,325.1,-0.7,1.8,2470.121,13.34,0.03,304.2
2019-06-28T01:27:30,42.805,6.029,-0.057,0.028,-0.052,102.0,109.0,99.0,13.3,1505.4,325.4,-0.7,1.8,2470.105,13.34,0.063,296.2
2019-06-28T01:30:31,42.805,6.029,-0.033,0.012,-0.013,102.0,107.0,97.0,13.4,1505.4,323.7,-0.7,1.8,2470.134,13.34,0.035,290.0
2019-06-28T01:33:32,42.805,6.029,-0.036,0.012,-0.082,100.0,109.0,98.0,13.4,1505.4,327.0,-0.7,1.9,2470.117,13.34,0.037,288.4
2019-06-28T01:36:33,42.805,6.029,-0.014,0.021,-0.015,101.0,108.0,97.0,13.3,1505.4,324.0,-0.7,1.9,2470.077,13.34,0.025,326.3
2019-06-28T01:39:34,42.805,6.029,-0.045,0.021,-0.041,100.0,109.0,98.0,13.4,1505.4,325.1,-0.7,1.8,2470.139,13.34,0.049,295.0
2019-06-28T01:42:35,42.805,6.029,-0.044,-0.002,-0.075,100.0,109.0,99.0,13.4,1505.4,324.7,-0.7,1.8,2470.082,13.34,0.044,267.4
2019-06-28T01:45:36,42.805,6.029,-0.013,0.013,-0.023,100.0,108.0,97.0,13.3,1505.4,327.3,-0.7,1.8,2470.091,13.34,0.018,315.0
2019-06-28T01:48:37,42.805,6.029,-0.007,0.021,-0.008,101.0,108.0,98.0,13.4,1505.4,328.4,-0.7,1.8,2470.109,13.34,0.022,341.6
2019-06-28T01:51:38,42.805,6.029,-0.04,0.019,-0.023,100.0,108.0,98.0,13.4,1505.4,327.1,-0.7,1.8,2470.124,13.34,0.044,295.4
2019-06-28T01:54:39,42.805,6.029,-0.032,-0.006,-0.026,103.0,109.0,98.0,13.4,1505.4,328.1,-0.7,1.9,2470.119,13.34,0.032,259.4
2019-06-28T01:57:40,42.805,6.029,-0.031,0.007,-0.026,103.0,108.0,98.0,13.3,1505.4,325.9,-0.7,1.9,2470.126,13.34,0.031,282.7
2019-06-28T02:00:41,42.805,6.029,-0.033,0.004,-0.013,100.0,111.0,98.0,13.4,1505.4,326.0,-0.7,1.9,2470.163,13.34,0.033,276.9
2019-06-28T02:03:42,42.805,6.029,-0.047,0.011,-0.067,102.0,109.0,99.0,13.4,1505.4,327.9,-0.7,1.9,2470.127,13.34,0.048,283.2
2019-06-28T02:06:43,42.805,6.029,-0.047,0.0,-0.006,101.0,108.0,98.0,13.3,1505.4,324.5,-0.7,1.8,2470.137,13.34,0.047,270.0
2019-06-28T02:09:44,42.805,6.029,-0.046,0.013,0.005,100.0,108.0,98.0,13.4,1505.4,324.8,-0.7,1.9,2470.126,13.34,0.047,285.8
2019-06-28T02:12:45,42.805,6.029,-0.007,0.007,-0.03,99.0,109.0,99.0,13.4,1505.4,325.6,-0.7,1.9,2470.12,13.34,0.009,315.0
2019-06-28T02:15:46,42.805,6.029,-0.024,0.028,-0.03,103.0,108.0,98.0,13.3,1505.4,328.2,-0.7,1.8,2470.155,13.34,0.036,319.4
2019-06-28T02:18:47,42.805,6.029,0.007,0.01,-0.048,101.0,108.0,98.0,13.4,1505.4,323.8,-0.7,1.8,2470.123,13.34,0.012,35.0
2019-06-28T02:21:48,42.805,6.029,-0.022,0.013,-0.01,102.0,109.0,98.0,13.4,1505.4,324.5,-0.8,1.8,2470.155,13.34,0.025,300.6
2019-06-28T02:24:49,42.805,6.029,-0.037,0.014,-0.044,102.0,107.0,98.0,13.4,1505.4,324.5,-0.7,1.8,2470.1,13.34,0.039,290.7
2019-06-28T02:27:50,42.805,6.029,-0.026,0.022,-0.029,101.0,108.0,99.0,13.4,1505.4,323.7,-0.7,1.8,2470.095,13.34,0.034,310.2
2019-06-28T02:30:51,42.805,6.029,-0.029,0.01,-0.05,103.0,106.0,98.0,13.3,1505.4,322.7,-0.8,1.9,2470.132,13.34,0.03,289.0
2019-06-28T02:33:52,42.805,6.029,-0.02,-0.003,-0.028,102.0,109.0,98.0,13.4,1505.4,323.6,-0.7,1.8,2470.133,13.34,0.02,261.5
2019-06-28T02:36:53,42.805,6.029,-0.006,0.005,-0.024,102.0,108.0,98.0,13.4,1505.4,326.6,-0.7,1.8,2470.161,13.34,0.007,309.8
2019-06-28T02:39:54,42.805,6.029,-0.031,0.009,-0.014,101.0,108.0,100.0,13.4,1505.4,325.1,-0.7,1.8,2470.11,13.34,0.032,286.2
2019-06-28T02:42:55,42.805,6.029,-0.033,0.007,-0.031,103.0,108.0,100.0,13.4,1505.4,324.3,-0.7,1.8,2470.098,13.34,0.033,282.0
2019-06-28T02:45:56,42.805,6.029,-0.009,0.01,-0.006,101.0,109.0,99.0,13.4,1505.4,326.6,-0.7,1.8,2470.168,13.34,0.013,318.0
2019-06-28T02:48:57,42.805,6.029,-0.022,-0.002,-0.041,103.0,108.0,99.0,13.3,1505.4,326.9,-0.7,1.8,2470.127,13.34,0.022,264.8
2019-06-28T02:51:58,42.805,6.029,-0.04,0.027,-0.053,102.0,108.0,98.0,13.4,1505.4,328.3,-0.8,1.8,2470.113,13.34,0.048,304.0
2019-06-28T02:54:59,42.805,6.029,-0.015,0.003,-0.029,102.0,109.0,98.0,13.4,1505.4,323.6,-0.7,1.9,2470.213,13.34,0.015,281.3
2019-06-28T02:58:00,42.805,6.029,-0.016,0.015,0.014,102.0,108.0,99.0,13.4,1505.4,327.4,-0.7,1.8,2470.086,13.34,0.021,313.1
2019-06-28T03:01:01,42.805,6.029,-0.016,0.011,-0.034,103.0,108.0,100.0,13.4,1505.4,323.6,-0.7,1.8,2470.126,13.34,0.019,304.5
2019-06-28T03:04:02,42.805,6.029,-0.026,0.029,-0.033,102.0,109.0,99.0,13.3,1505.4,326.5,-0.7,1.9,2470.112,13.34,0.038,318.1
2019-06-28T03:07:03,42.805,6.029,-0.008,0.013,0.019,104.0,108.0,99.0,13.4,1505.4,325.0,-0.7,1.9,2470.123,13.34,0.015,328.4
2019-06-28T03:10:04,42.805,6.029,-0.027,0.021,-0.038,101.0,108.0,98.0,13.4,1505.4,327.5,-0.8,1.8,2470.139,13.34,0.034,307.9
2019-06-28T03:13:05,42.805,6.029,-0.023,0.016,-0.021,101.0,109.0,99.0,13.3,1505.4,325.7,-0.7,1.8,2470.134,13.34,0.028,304.8
2019-06-28T03:16:06,42.805,6.029,-0.005,-0.001,0.001,103.0,109.0,98.0,13.4,1505.4,323.8,-0.7,1.8,2470.115,13.34,0.005,258.7
2019-06-28T03:19:07,42.805,6.029,-0.021,0.009,-0.042,103.0,108.0,100.0,13.4,1505.4,326.5,-0.7,1.9,2470.125,13.34,0.022,293.2
2019-06-28T03:22:08,42.805,6.029,-0.032,-0.009,-0.042,103.0,110.0,97.0,13.3,1505.4,326.9,-0.7,1.8,2470.16,13.34,0.033,254.3
2019-06-28T03:25:09,42.805,6.029,-0.015,0.004,-0.021,103.0,107.0,99.0,13.3,1505.4,324.4,-0.7,1.9,2470.101,13.34,0.015,284.9
2019-06-28T03:28:10,42.805,6.029,-0.007,0.03,-0.031,104.0,108.0,98.0,13.4,1505.4,325.6,-0.7,1.9,2470.128,13.34,0.03,346.9
2019-06-28T03:31:11,42.805,6.029,-0.031,0.022,0.009,102.0,108.0,98.0,13.3,1505.4,326.2,-0.7,1.8,2470.11,13.34,0.038,305.4
2019-06-28T03:34:12,42.805,6.029,-0.026,0.013,-0.062,102.0,108.0,100.0,13.4,1505.4,326.4,-0.7,1.8,2470.087,13.34,0.029,296.6
2019-06-28T03:37:13,42.805,6.029,-0.029,-0.008,-0.023,100.0,108.0,99.0,13.4,1505.4,328.0,-0.7,1.8,2470.164,13.34,0.03,254.6
2019-06-28T03:40:14,42.805,6.029,-0.027,-0.002,-0.045,100.0,109.0,99.0,13.4,1505.4,328.2,-0.7,1.8,2470.086,13.34,0.027,265.8
2019-06-28T03:43:15,42.805,6.029,-0.029,0.008,-0.049,100.0,108.0,99.0,13.4,1505.4,328.1,-0.7,1.9,2470.118,13.34,0.03,285.4
2019-06-28T03:46:16,42.805,6.029,-0.011,0.019,-0.033,104.0,108.0,101.0,13.3,1505.4,326.5,-0.7,1.8,2470.107,13.34,0.021,329.9
2019-06-28T03:49:17,42.805,6.029,-0.009,0.001,-0.024,102.0,108.0,99.0,13.3,1505.4,324.7,-0.7,1.9,2470.127,13.34,0.009,276.3
2019-06-28T03:52:18,42.805,6.029,-0.016,0.003,-0.044,104.0,108.0,98.0,13.3,1505.4,324.4,-0.8,1.9,2470.117,13.34,0.016,280.6
2019-06-28T03:55:19,42.805,6.029,-0.033,0.001,-0.042,101.0,108.0,100.0,13.3,1505.4,323.5,-0.7,1.8,2470.126,13.35,0.033,271.7
2019-06-28T03:58:20,42.805,6.029,-0.003,-0.001,-0.011,102.0,108.0,98.0,13.4,1505.4,324.8,-0.7,1.9,2470.152,13.34,0.003,251.6
2019-06-28T04:01:21,42.805,6.029,-0.014,0.009,-0.033,103.0,108.0,98.0,13.4,1505.4,327.9,-0.7,1.8,2470.148,13.34,0.016,302.7
2019-06-28T04:04:22,42.805,6.029,-0.041,0.008,-0.06,102.0,108.0,98.0,13.3,1505.4,323.6,-0.7,1.9,2470.142,13.34,0.041,281.0
2019-06-28T04:07:23,42.805,6.029,-0.005,-0.005,0.009,102.0,108.0,100.0,13.4,1505.4,324.0,-0.7,1.8,2470.106,13.34,0.007,225.0
2019-06-28T04:10:24,42.805,6.029,-0.03,-0.006,-0.052,102.0,108.0,99.0,13.4,1505.4,323.0,-0.7,1.8,2470.141,13.35,0.03,258.7
2019-06-28T04:13:25,42.805,6.029,-0.031,-0.007,-0.028,102.0,107.0,99.0,13.4,1505.4,327.1,-0.7,1.9,2470.114,13.34,0.031,257.3
2019-06-28T04:16:26,42.805,6.029,-0.04,0.014,-0.017,101.0,109.0,99.0,13.3,1505.4,328.2,-0.7,1.9,2470.124,13.34,0.042,289.3
2019-06-28T04:19:27,42.805,6.029,0.004,-0.007,-0.026,102.0,108.0,99.0,13.4,1505.4,325.5,-0.7,1.9,2470.11,13.34,0.008,150.3
2019-06-28T04:22:28,42.805,6.029,-0.021,0.001,-0.04,101.0,108.0,98.0,13.3,1505.4,326.4,-0.8,1.9,2470.1,13.34,0.021,272.7
2019-06-28T04:25:29,42.805,6.029,0.002,0.024,-0.02,102.0,107.0,98.0,13.3,1505.4,326.2,-0.7,1.9,2470.095,13.34,0.024,4.8
2019-06-28T04:28:30,42.805,6.029,-0.03,0.005,-0.044,100.0,108.0,99.0,13.4,1505.4,326.4,-0.7,1.8,2470.173,13.34,0.03,279.5
2019-06-28T04:31:31,42.805,6.029,-0.047,0.012,-0.02,100.0,107.0,100.0,13.3,1505.4,324.9,-0.7,1.9,2470.074,13.35,0.048,284.3
2019-06-28T04:34:32,42.805,6.029,-0.009,-0.007,-0.034,101.0,109.0,99.0,13.3,1505.4,324.8,-0.7,1.8,2470.135,13.35,0.011,232.1
2019-06-28T04:37:33,42.805,6.029,-0.016,0.004,-0.058,102.0,107.0,99.0,13.3,1505.4,327.6,-0.8,1.9,2470.099,13.35,0.016,284.0
2019-06-28T04:40:34,42.805,6.029,0.0,0.019,-0.015,103.0,109.0,98.0,13.3,1505.4,323.7,-0.7,1.9,2470.12,13.35,0.019,0.0
2019-06-28T04:43:35,42.805,6.029,-0.019,-0.001,-0.01,103.0,109.0,99.0,13.3,1505.4,324.0,-0.8,1.9,2470.095,13.35,0.019,267.0
2019-06-28T04:46:36,42.805,6.029,-0.005,0.0,0.006,102.0,109.0,100.0,13.3,1505.4,326.8,-0.8,1.9,2470.088,13.35,0.005,270.0
2019-06-28T04:49:37,42.805,6.029,-0.032,-0.001,-0.058,103.0,107.0,99.0,13.3,1505.4,327.6,-0.8,1.9,2470.1,13.35,0.032,268.2
2019-06-28T04:52:38,42.805,6.029,-0.024,0.005,-0.033,102.0,109.0,100.0,13.4,1505.4,325.2,-0.8,1.8,2470.109,13.35,0.024,281.8
2019-06-28T04:55:39,42.805,6.029,-0.035,0.021,-0.032,100.0,110.0,99.0,13.4,1505.4,322.7,-0.7,1.8,2470.122,13.35,0.04,301.0
2019-06-28T04:58:40,42.805,6.029,-0.044,0.0,-0.052,102.0,108.0,99.0,13.4,1505.4,325.2,-0.7,1.8,2470.11,13.35,0.044,270.0
2019-06-28T05:01:41,42.805,6.029,-0.024,0.01,-0.058,103.0,108.0,99.0,13.4,1505.4,326.4,-0.7,1.8,2470.086,13.35,0.026,292.6
2019-06-28T05:04:42,42.805,6.029,-0.024,0.014,-0.028,104.0,108.0,100.0,13.3,1505.4,324.5,-0.7,1.8,2470.113,13.35,0.027,300.3
2019-06-28T05:07:43,42.805,6.029,0.008,-0.011,-0.02,102.0,110.0,100.0,13.4,1505.4,325.8,-0.7,1.8,2470.118,13.35,0.013,144.0
2019-06-28T05:10:44,42.805,6.029,-0.043,0.016,-0.061,103.0,108.0,99.0,13.4,1505.4,323.0,-0.7,1.8,2470.119,13.35,0.045,290.4
2019-06-28T05:13:45,42.805,6.029,-0.017,0.005,-0.023,102.0,109.0,100.0,13.3,1505.4,325.1,-0.7,1.9,2470.118,13.35,0.017,286.4
2019-06-28T05:16:46,42.805,6.029,-0.036,0.0,-0.05,104.0,108.0,100.0,13.4,1505.4,326.3,-0.7,1.9,2470.115,13.35,0.036,270.0
2019-06-28T05:19:47,42.805,6.029,-0.025,0.011,-0.023,104.0,108.0,100.0,13.4,1505.4,325.9,-0.7,1.8,2470.042,13.35,0.027,293.7
2019-06-28T05:22:48,42.805,6.029,-0.036,0.003,-0.042,101.0,109.0,101.0,13.4,1505.4,327.4,-0.7,1.8,2470.095,13.35,0.036,274.8
2019-06-28T05:25:49,42.805,6.029,-0.027,0.0,-0.035,104.0,109.0,99.0,13.4,1505.4,322.9,-0.7,1.8,2470.059,13.35,0.026,270.0
2019-06-28T05:28:50,42.805,6.029,-0.009,0.001,-0.033,106.0,109.0,99.0,13.4,1505.4,324.7,-0.7,1.9,2470.095,13.35,0.009,276.3
2019-06-28T05:31:51,42.805,6.029,-0.022,0.001,-0.014,103.0,109.0,100.0,13.3,1505.4,328.0,-0.7,1.9,2470.06,13.35,0.022,272.6
2019-06-28T05:34:52,42.805,6.029,-0.021,0.0,-0.017,104.0,107.0,99.0,13.4,1505.4,324.2,-0.7,1.8,2470.105,13.35,0.021,270.0
2019-06-28T05:37:53,42.805,6.029,-0.005,0.006,-0.005,102.0,109.0,97.0,13.4,1505.4,324.4,-0.7,1.8,2470.131,13.35,0.007,320.2
2019-06-28T05:40:54,42.805,6.029,-0.012,0.007,-0.069,103.0,108.0,99.0,13.4,1505.4,323.3,-0.7,1.8,2470.058,13.35,0.013,300.3
2019-06-28T05:43:55,42.805,6.029,-0.021,0.019,-0.028,103.0,108.0,99.0,13.3,1505.4,326.9,-0.7,1.8,2470.106,13.35,0.028,312.1
2019-06-28T05:46:56,42.805,6.029,-0.037,0.008,-0.044,101.0,108.0,99.0,13.4,1505.4,324.7,-0.7,1.8,2470.086,13.34,0.037,282.2
2019-06-28T05:49:57,42.805,6.029,-0.006,-0.007,-0.027,101.0,109.0,99.0,13.4,1505.4,328.2,-0.8,1.9,2470.067,13.34,0.009,220.6
2019-06-28T05:52:58,42.805,6.029,-0.02,0.018,0.0,103.0,108.0,99.0,13.4,1505.4,324.8,-0.7,1.9,2470.105,13.34,0.026,312.0
2019-06-28T05:55:59,42.805,6.029,-0.015,0.022,-0.02,101.0,108.0,99.0,13.4,1505.4,324.9,-0.7,1.8,2470.084,13.34,0.026,325.7
2019-06-28T05:59:00,42.805,6.029,-0.019,0.019,-0.016,101.0,108.0,99.0,13.3,1505.4,325.4,-0.7,1.8,2470.101,13.34,0.026,315.0
2019-06-28T06:02:01,42.805,6.029,-0.022,0.013,0.0,103.0,108.0,98.0,13.4,1505.4,325.5,-0.8,1.8,2470.086,13.34,0.025,300.6
2019-06-28T06:05:02,42.805,6.029,-0.015,0.016,-0.006,103.0,109.0,98.0,13.3,1505.4,327.0,-0.7,1.9,2470.113,13.34,0.021,316.9
2019-06-28T06:08:03,42.805,6.029,-0.022,0.005,-0.011,103.0,107.0,99.0,13.4,1505.4,326.0,-0.7,1.8,2470.066,13.34,0.022,282.8
2019-06-28T06:11:04,42.805,6.029,-0.008,0.03,-0.009,103.0,109.0,99.0,13.3,1505.4,324.9,-0.7,1.9,2470.112,13.34,0.031,345.1
2019-06-28T06:14:05,42.805,6.029,-0.025,0.032,-0.016,103.0,110.0,99.0,13.4,1505.4,325.6,-0.7,1.9,2470.087,13.34,0.04,322.0
2019-06-28T06:17:06,42.805,6.029,-0.038,-0.003,-0.021,103.0,110.0,99.0,13.4,1505.4,325.7,-0.7,1.9,2470.074,13.34,0.038,265.5
2019-06-28T06:20:07,42.805,6.029,-0.033,0.005,-0.023,104.0,109.0,98.0,13.4,1505.4,325.2,-0.7,1.8,2470.077,13.34,0.033,278.6
2019-06-28T06:23:08,42.805,6.029,-0.014,0.008,-0.05,102.0,110.0,99.0,13.4,1505.4,325.5,-0.7,1.8,2470.081,13.34,0.016,299.7
2019-06-28T06:26:09,42.805,6.029,-0.041,0.008,-0.038,104.0,106.0,98.0,13.4,1505.4,327.7,-0.7,1.9,2470.091,13.34,0.041,281.0
2019-06-28T06:29:10,42.805,6.029,-0.062,0.003,-0.033,101.0,107.0,99.0,13.4,1505.4,326.0,-0.7,1.8,2470.088,13.34,0.062,272.8
2019-06-28T06:32:11,42.805,6.029,-0.019,0.004,-0.02,103.0,108.0,99.0,13.3,1505.4,326.8,-0.7,1.8,2470.065,13.34,0.019,281.9
2019-06-28T06:35:12,42.805,6.029,0.0,0.027,-0.029,102.0,110.0,99.0,13.4,1505.4,326.0,-0.7,1.8,2470.069,13.34,0.026,0.0
2019-06-28T06:38:13,42.805,6.029,-0.019,0.011,-0.029,101.0,108.0,100.0,13.4,1505.4,324.5,-0.7,1.9,2470.074,13.34,0.021,300.1
2019-06-28T06:41:14,42.805,6.029,-0.037,-0.001,-0.022,102.0,108.0,99.0,13.3,1505.4,325.8,-0.7,1.8,2470.094,13.34,0.037,268.5
2019-06-28T06:44:15,42.805,6.029,-0.002,0.005,-0.052,102.0,108.0,100.0,13.4,1505.4,324.6,-0.7,1.9,2470.084,13.34,0.005,338.2
2019-06-28T06:47:16,42.805,6.029,-0.039,0.007,-0.025,104.0,107.0,99.0,13.3,1505.4,324.8,-0.7,1.8,2470.069,13.34,0.039,280.2
2019-06-28T06:50:17,42.805,6.029,0.001,0.024,0.007,104.0,105.0,100.0,13.3,1505.4,325.3,-0.7,1.8,2470.069,13.34,0.024,2.4
2019-06-28T06:53:18,42.805,6.029,-0.006,-0.007,-0.021,104.0,108.0,100.0,13.4,1505.4,328.2,-0.7,1.8,2470.049,13.34,0.009,220.6
2019-06-28T06:56:19,42.805,6.029,0.02,0.007,0.02,103.0,105.0,98.0,13.4,1505.4,322.9,-0.7,1.8,2470.061,13.34,0.021,70.7
2019-06-28T06:59:20,42.805,6.029,-0.003,0.0,-0.002,101.0,106.0,100.0,13.4,1505.4,326.6,-0.7,1.9,2470.061,13.34,0.003,270.0
2019-06-28T07:02:21,42.805,6.029,-0.02,-0.001,-0.046,103.0,107.0,99.0,13.3,1505.4,326.5,-0.7,1.8,2470.031,13.34,0.02,267.1
2019-06-28T07:05:22,42.805,6.029,-0.007,0.021,0.017,102.0,108.0,100.0,13.4,1505.4,326.1,-0.7,1.8,2470.064,13.34,0.022,341.6
2019-06-28T07:08:23,42.805,6.029,-0.026,0.017,0.005,103.0,107.0,101.0,13.4,1505.4,323.5,-0.7,1.9,2470.082,13.34,0.031,303.2
2019-06-28T07:11:24,42.805,6.029,0.009,0.005,0.01,101.0,107.0,99.0,13.4,1505.4,325.5,-0.7,1.8,2470.09,13.34,0.01,60.9
2019-06-28T07:14:25,42.805,6.029,-0.002,0.028,-0.018,103.0,106.0,100.0,13.4,1505.4,325.4,-0.7,1.8,2470.067,13.34,0.028,355.9
2019-06-28T07:17:26,42.805,6.029,-0.02,0.01,-0.02,103.0,106.0,100.0,13.3,1505.4,328.3,-0.7,1.9,2470.069,13.34,0.022,296.6
2019-06-28T07:20:27,42.805,6.029,0.003,0.019,-0.004,104.0,107.0,99.0,13.3,1505.4,322.8,-0.7,1.8,2470.049,13.34,0.019,9.0
2019-06-28T07:23:28,42.805,6.029,0.004,0.009,0.007,103.0,108.0,99.0,13.4,1505.4,326.1,-0.7,1.8,2470.011,13.34,0.009,24.0
2019-06-28T07:26:29,42.805,6.029,-0.023,-0.001,-0.046,104.0,108.0,103.0,13.4,1505.4,324.4,-0.7,1.8,2470.037,13.34,0.023,267.5
2019-06-28T07:29:30,42.805,6.029,-0.025,0.003,-0.043,102.0,109.0,100.0,13.4,1505.4,325.8,-0.7,1.8,2470.033,13.34,0.025,276.8
2019-06-28T07:32:31,42.805,6.029,-0.034,0.019,-0.033,102.0,107.0,100.0,13.4,1505.4,327.8,-0.7,1.8,2470.038,13.34,0.038,299.2
2019-06-28T07:35:32,42.805,6.029,-0.045,0.032,-0.041,103.0,108.0,99.0,13.4,1505.4,323.0,-0.8,1.8,2470.04,13.34,0.055,305.4
2019-06-28T07:38:33,42.805,6.029,-0.036,0.007,-0.037,103.0,109.0,100.0,13.4,1505.4,323.4,-0.7,1.9,2470.055,13.34,0.036,281.0
2019-06-28T07:41:34,42.805,6.029,-0.067,0.009,-0.05,104.0,108.0,99.0,13.4,1505.4,325.6,-0.7,1.8,2470.045,13.34,0.067,277.7
2019-06-28T07:44:35,42.805,6.029,-0.052,0.008,-0.058,103.0,108.0,100.0,13.4,1505.4,326.4,-0.7,1.8,2470.04,13.34,0.052,278.7
2019-06-28T07:47:36,42.805,6.029,-0.038,0.011,-0.034,103.0,110.0,100.0,13.4,1505.4,325.3,-0.8,1.9,2470.01,13.34,0.039,286.1
2019-06-28T07:50:37,42.805,6.029,-0.006,0.012,-0.001,103.0,109.0,101.0,13.4,1505.4,325.6,-0.7,1.9,2470.056,13.34,0.013,333.4
2019-06-28T07:53:38,42.805,6.029,-0.024,0.018,-0.007,103.0,109.0,102.0,13.4,1505.4,324.9,-0.7,1.8,2470.047,13.34,0.03,306.9
2019-06-28T07:56:39,42.805,6.029,-0.023,-0.012,0.01,105.0,109.0,101.0,13.3,1505.4,324.9,-0.7,1.9,2470.036,13.34,0.025,242.4
2019-06-28T07:59:40,42.805,6.029,-0.037,0.011,0.002,105.0,110.0,101.0,13.3,1505.4,325.4,-0.7,1.8,2470.019,13.34,0.038,286.6
2019-06-28T08:02:41,42.805,6.029,-0.031,0.0,-0.022,105.0,110.0,102.0,13.4,1505.4,323.3,-0.7,1.8,2470.008,13.34,0.03,270.0
2019-06-28T08:05:42,42.805,6.029,-0.028,-0.015,0.006,104.0,109.0,101.0,13.4,1505.4,326.3,-0.7,1.9,2470.033,13.34,0.031,241.8
2019-06-28T08:08:43,42.805,6.029,-0.015,0.017,-0.006,106.0,109.0,100.0,13.4,1505.4,326.1,-0.7,1.8,2470.035,13.34,0.022,318.6
2019-06-28T08:11:44,42.805,6.029,-0.049,0.007,-0.026,103.0,109.0,100.0,13.4,1505.4,325.1,-0.7,1.9,2470.056,13.34,0.049,278.1
2019-06-28T08:14:45,42.805,6.029,-0.029,0.019,-0.025,105.0,111.0,99.0,13.4,1505.4,325.4,-0.7,1.9,2470.026,13.34,0.034,303.2
2019-06-28T08:17:46,42.805,6.029,-0.01,0.004,-0.017,106.0,110.0,100.0,13.3,1505.4,325.9,-0.7,1.8,2470.007,13.34,0.01,291.8
2019-06-28T08:20:47,42.805,6.029,-0.038,0.019,-0.036,104.0,109.0,100.0,13.3,1505.4,324.5,-0.7,1.9,2470.027,13.34,0.042,296.6
2019-06-28T08:23:48,42.805,6.029,-0.012,-0.007,-0.035,104.0,110.0,100.0,13.4,1505.4,322.9,-0.7,1.8,2470.001,13.34,0.013,239.7
2019-06-28T08:26:49,42.805,6.029,-0.013,0.014,0.0,104.0,110.0,102.0,13.4,1505.4,326.9,-0.8,1.8,2470.022,13.34,0.019,317.1
2019-06-28T08:29:50,42.805,6.029,-0.013,0.002,-0.047,105.0,109.0,102.0,13.4,1505.4,324.2,-0.7,1.9,2469.997,13.34,0.013,278.7
2019-06-28T08:32:51,42.805,6.029,-0.01,0.0,-0.006,105.0,110.0,101.0,13.3,1505.4,327.3,-0.7,1.9,2470.035,13.34,0.01,270.0
2019-06-28T08:35:52,42.805,6.029,-0.042,0.0,-0.046,104.0,110.0,101.0,13.4,1505.4,323.4,-0.7,1.8,2470.02,13.34,0.042,270.0
2019-06-28T08:38:53,42.805,6.029,-0.015,-0.01,0.0,104.0,109.0,99.0,13.4,1505.4,325.4,-0.7,1.9,2469.979,13.34,0.018,236.3
2019-06-28T08:41:54,42.805,6.029,-0.033,0.002,-0.025,107.0,110.0,100.0,13.4,1505.4,326.6,-0.7,1.8,2470.024,13.34,0.033,273.5
2019-06-28T08:44:55,42.805,6.029,-0.047,0.007,-0.011,105.0,109.0,100.0,13.3,1505.4,325.1,-0.7,1.9,2469.998,13.34,0.047,278.5
2019-06-28T08:47:56,42.805,6.029,-0.004,0.029,-0.006,103.0,109.0,101.0,13.4,1505.4,324.7,-0.7,1.8,2470.028,13.34,0.029,352.2
2019-06-28T08:50:57,42.805,6.029,-0.025,0.018,-0.026,104.0,110.0,101.0,13.4,1505.4,327.0,-0.7,1.8,2469.974,13.34,0.03,305.8
2019-06-28T08:53:58,42.805,6.029,-0.05,0.003,-0.037,105.0,109.0,101.0,13.4,1505.4,324.7,-0.7,1.8,2470.003,13.34,0.05,273.4
2019-06-28T08:56:59,42.805,6.029,-0.023,0.003,-0.035,106.0,110.0,101.0,13.3,1505.4,328.0,-0.7,1.9,2469.998,13.34,0.023,277.4
2019-06-28T09:00:00,42.805,6.029,-0.043,-0.004,-0.058,105.0,110.0,100.0,13.3,1505.4,327.8,-0.7,1.8,2469.984,13.34,0.043,264.7
2019-06-28T09:03:01,42.805,6.029,-0.04,0.003,-0.048,104.0,111.0,100.0,13.4,1505.4,327.8,-0.8,1.8,2470.019,13.34,0.04,274.3
2019-06-28T09:06:02,42.805,6.029,-0.031,0.018,-0.036,104.0,112.0,99.0,13.4,1505.4,326.2,-0.8,1.8,2469.999,13.34,0.035,300.1
2019-06-28T09:09:03,42.805,6.029,-0.043,0.005,-0.003,104.0,109.0,101.0,13.4,1505.4,323.5,-0.7,1.8,2469.96,13.34,0.043,276.6
2019-06-28T09:12:04,42.805,6.029,-0.04,0.026,-0.042,107.0,109.0,100.0,13.4,1505.4,325.1,-0.7,1.8,2469.992,13.34,0.047,303.0
2019-06-28T09:15:05,42.805,6.029,-0.024,0.018,-0.023,106.0,108.0,101.0,13.3,1505.4,326.2,-0.7,1.9,2469.985,13.34,0.03,306.9
2019-06-28T09:18:06,42.805,6.029,-0.014,0.025,-0.023,106.0,110.0,103.0,13.4,1505.4,326.4,-0.7,1.9,2469.964,13.34,0.028,330.7
2019-06-28T09:21:07,42.805,6.029,-0.024,0.005,0.005,105.0,109.0,100.0,13.4,1505.4,326.3,-0.7,1.8,2469.979,13.34,0.024,281.8
2019-06-28T09:24:08,42.805,6.029,-0.03,0.024,-0.026,109.0,110.0,100.0,13.3,1505.4,325.4,-0.7,1.8,2470.006,13.34,0.038,308.7
2019-06-28T09:27:09,42.805,6.029,-0.034,0.003,-0.018,106.0,108.0,100.0,13.4,1505.4,327.0,-0.7,1.8,2469.98,13.34,0.034,275.0
2019-06-28T09:30:10,42.805,6.029,-0.04,0.005,-0.047,105.0,109.0,101.0,13.3,1505.4,324.4,-0.7,1.9,2469.967,13.34,0.04,277.1
2019-06-28T09:33:11,42.805,6.029,-0.043,0.01,-0.044,104.0,109.0,100.0,13.3,1505.4,328.1,-0.7,1.9,2470.018,13.34,0.044,283.1
2019-06-28T09:36:12,42.805,6.029,-0.064,0.006,-0.072,104.0,109.0,99.0,13.4,1505.4,327.2,-0.7,1.9,2470.003,13.34,0.064,275.4
2019-06-28T09:39:13,42.805,6.029,-0.007,0.026,-0.03,104.0,109.0,100.0,13.4,1505.4,327.6,-0.7,1.9,2469.975,13.34,0.026,344.9